Regional Weather Roundup
Issued by NWS Sterling, VA

Current Version | Previous Version | Text Only | Print | Product List | Glossary On
Versions: 1 2 3 4 5 6 7 8 9 10 11 12 13 14 15 16 17 18 19 20 21 22 23 24 25 26 27 28 29 30 31 32 33 34 35 36 37 38 39 40 41 42 43 44 45 46 47 48 49 50
000
ASUS41 KLWX 250212
RWRLWX

REGIONAL WEATHER ROUNDUP
NATIONAL WEATHER SERVICE BALTIMORE MD/WASHINGTON DC
1000 PM EDT SAT OCT 24 2020

Note: "FAIR" indicates few or no clouds below 12,000 feet
with no significant weather and/or obstructions to visibility.
 TC=TEMPERATURE CELSIUS

 * =Non NWS site. Station does not report precipitation (e.g. rain,
    snow, etc.), thunder, or fog.

DCZ001-MDZ009-015-VAZ040>042-051-053>054-250300-
WASHINGTON METRO

CITY           SKY/WX    TMP DP  RH WIND       PRES   REMARKS
WASHINGTON NAT CLOUDY    63  48  58 N15       30.07R
DULLES         CLOUDY    58  44  60 N13       30.08R
ANDREWS AFB    CLOUDY    62  49  60 N8        30.05R
FT BELVOIR     CLOUDY    62  47  58 NW12      30.06R
QUANTICO       CLOUDY    63  46  54 N10G20    30.06R
COLLEGE PARK*  CLOUDY    60  44  55 NW6       30.06R
LEESBURG*      CLOUDY    54  45  71 N5        30.10R
MANASSAS*      LGT RAIN  54  50  86 N12       30.08R
GAITHERSBURG*  CLOUDY    56  44  64 VRB3      30.09R

$$

MDZ006>007-011-014-250300-
BALTIMORE METRO

CITY           SKY/WX    TMP DP  RH WIND       PRES   REMARKS
BWI AIRPORT    MOCLDY    60  46  59 N8G17     30.05R
MARTIN STATE   MOCLDY    59  50  72 N10       30.07R
ANNAPOLIS      CLOUDY    62  52  69 N14       30.05R
ABERDEEN*      MOCLDY    56  45  65 N8        30.07R
FORT MEADE*    CLOUDY    59  48  67 N6        30.08R

$$

MDZ012-015-019>023-250300-
MARYLAND EASTERN SHORE

CITY           SKY/WX    TMP DP  RH WIND       PRES   REMARKS
OCEAN CITY     CLOUDY    68  59  73 N12       30.01R
SALISBURY      MOCLDY    68  59  73 N7        30.01R
BAY BRIDGE AP* MOCLDY    61  50  67 N9        30.06R
CAMBRIDGE*     CLOUDY    64  55  72 N12       30.04R
EASTON*        PTCLDY    61  54  77 N9        30.08R

$$

MDZ017>025-250300-
SOUTHERN MARYLAND

CITY           SKY/WX    TMP DP  RH WIND       PRES   REMARKS
PATUXENT RIVER CLOUDY    68  57  68 N10       30.02R
ST INIGOES     CLOUDY    71  59  65 N5        30.01R
LEONARDTOWN*   CLOUDY    64  55  72 N7        30.05R

$$

MDZ003>005-250300-
NORTH CENTRAL MARYLAND

CITY           SKY/WX    TMP DP  RH WIND       PRES   REMARKS
FREDERICK*     CLOUDY    55  43  62 N7        30.09S
HAGERSTOWN APT CLOUDY    52  39  61 N10       30.10R
WESTMINSTER*   CLOUDY    55  45  67 N5        30.09R

$$

MDZ501>502-250300-
WESTERN MARYLAND

CITY           SKY/WX    TMP DP  RH WIND       PRES   REMARKS
OAKLAND*       CLOUDY    37  37 100 N3        30.11S
CUMBERLAND*    CLOUDY    51  38  62 N14       30.17R

$$

VAZ025>031-250300-
SHENANDOAH VALLEY

CITY           SKY/WX    TMP DP  RH WIND       PRES   REMARKS
WINCHESTER*    MOCLDY    50  43  76 CALM      30.10R
FRONT ROYAL*   PTCLDY    54  45  71 N6        30.09R
LURAY*         CLOUDY    55  46  71 N8        30.08R
NEW MARKET*    NOT AVBL
STAUNTON*      CLOUDY    58  51  75 NE10      30.07S
WAYNESBORO*    CLOUDY    59  53  80 N10       30.05S

$$

WVZ021-048>050-054>055-250300-
EASTERN WEST VIRGINIA PANHANDLE

CITY           SKY/WX    TMP DP  RH WIND       PRES   REMARKS
MARTINSBURG    MOCLDY    52  40  63 NW10      30.10R
PETERSBURG*    CLOUDY    55  47  74 CALM      30.11S

$$

VAZ036>039-050-250300-
CENTRAL FOOTHILLS

CITY           SKY/WX    TMP DP  RH WIND       PRES   REMARKS
CHARLOTTESVILL CLOUDY    61  52  72 NE14      30.04R
CULPEPER*      CLOUDY    56  52  88 NE3       30.08R
ORANGE*        CLOUDY    57  50  77 NE7       30.06R
GORDONSVILLE*  CLOUDY    59  51  76 NE9G18    30.05R
WARRENTON*     CLOUDY    55  51  85 N6        30.07S

$$

VAZ055>057-250300-
NORTH AND CENTRAL PIEDMONT

CITY           SKY/WX    TMP DP  RH WIND       PRES   REMARKS
FREDERICKSBRG* CLOUDY    63  52  66 N7G17     30.04S
STAFFORD*      CLOUDY    62  42  47 N8        30.09S

$$

NCZ024-NYZ072-PAZ021-071-VAZ022-071-250300-
OTHER REGIONAL OBSERVATIONS

CITY           SKY/WX    TMP DP  RH WIND       PRES   REMARKS
NEW YORK CITY  PTCLDY    53  37  54 NW9       30.07R
PHILADELPHIA   MOCLDY    54  39  57 N14       30.06R
PITTSBURGH     CLOUDY    45  33  63 N7        30.16R
ROANOKE        CLOUDY    68  61  78 N3        30.02S
RICHMOND       LGT RAIN  66  62  87 NE7       30.01R
RALEIGH        MOCLDY    69  64  84 CALM      29.97R

$$

ANZ530>537-250300-
MARINE OBSERVATIONS

STATION/POSITION TIME  TEMP    WIND        PRES
                       AIR SEA DIR/SP/G
                 (UTC) (F)     (DEG/KT/KT) (MB)
THOMAS PT LIGHT  0200   61 67  350/ 18/ 21 1018.3R
TOLCHESTER       0130      67                N/A
GOOSES REEF      0148   64 67   30/ 17/ 19   N/A
COVE POINT       0112   67                   N/A
BALT HARBOR      0130      69                N/A
BALT KEY BRIDGE  0112   61                   N/A
WASH DC CHANNEL  0130      65                N/A
DAHLGREN         0130      69                N/A
LEWISETTA        0130      67                N/A
SOLOMONS ISLAND  0130      69                N/A
CAMBRIDGE PIER   0130      68                N/A
BISHOPS HEAD     0130      71                N/A
CHESAPEAKE CITY  0130      65                N/A

$$





USA.gov is the U.S. government's official web portal to all federal, state and local government web resources and services.